Year,Month,Day,Hour,Minute,Value (Times are PST for temperature in C)
2016,08,18,00,00,17.10
2016,08,18,00,01,17.10
2016,08,18,00,02,17.20
2016,08,18,00,03,17.20
2016,08,18,00,04,17.30
2016,08,18,00,05,17.30
2016,08,18,00,06,17.30
2016,08,18,00,07,17.30
2016,08,18,00,08,17.40
2016,08,18,00,09,17.40
2016,08,18,00,10,17.50
2016,08,18,00,11,17.50
2016,08,18,00,12,17.60
2016,08,18,00,13,17.60
2016,08,18,00,14,17.70
2016,08,18,00,15,17.70
2016,08,18,00,16,17.80
2016,08,18,00,17,17.80
2016,08,18,00,18,17.80
2016,08,18,00,19,17.90
2016,08,18,00,20,17.90
2016,08,18,00,21,17.90
2016,08,18,00,22,17.90
2016,08,18,00,23,17.90
2016,08,18,00,24,17.90
2016,08,18,00,25,17.90
2016,08,18,00,26,17.90
2016,08,18,00,27,17.90
2016,08,18,00,28,17.90
2016,08,18,00,29,17.90
2016,08,18,00,30,17.90
2016,08,18,00,31,17.90
2016,08,18,00,32,17.90
2016,08,18,00,33,17.80
2016,08,18,00,34,17.80
2016,08,18,00,35,17.80
2016,08,18,00,36,17.80
2016,08,18,00,37,17.80
2016,08,18,00,38,17.80
2016,08,18,00,39,17.80
2016,08,18,00,40,17.80
2016,08,18,00,41,17.70
2016,08,18,00,42,17.70
2016,08,18,00,43,17.70
2016,08,18,00,44,17.70
2016,08,18,00,45,17.70
2016,08,18,00,46,17.70
2016,08,18,00,47,17.70
2016,08,18,00,48,17.70
2016,08,18,00,49,17.70
2016,08,18,00,50,17.70
2016,08,18,00,51,17.70
2016,08,18,00,52,17.70
2016,08,18,00,53,17.70
2016,08,18,00,54,17.70
2016,08,18,00,55,17.70
2016,08,18,00,56,17.70
2016,08,18,00,57,17.70
2016,08,18,00,58,17.70
2016,08,18,00,59,17.70
2016,08,18,01,00,17.70
2016,08,18,01,01,17.70
2016,08,18,01,02,17.70
2016,08,18,01,03,17.70
2016,08,18,01,04,17.70
2016,08,18,01,05,17.70
2016,08,18,01,06,17.70
2016,08,18,01,07,17.70
2016,08,18,01,08,17.70
2016,08,18,01,09,17.70
2016,08,18,01,10,17.70
2016,08,18,01,11,17.70
2016,08,18,01,12,17.70
2016,08,18,01,13,17.70
2016,08,18,01,14,17.70
2016,08,18,01,15,17.70
2016,08,18,01,16,17.70
2016,08,18,01,17,17.70
2016,08,18,01,18,17.70
2016,08,18,01,19,17.70
2016,08,18,01,20,17.70
2016,08,18,01,21,17.70
2016,08,18,01,22,17.70
2016,08,18,01,23,17.70
2016,08,18,01,24,17.70
2016,08,18,01,25,17.70
2016,08,18,01,26,17.70
2016,08,18,01,27,17.70
2016,08,18,01,28,17.70
2016,08,18,01,29,17.70
2016,08,18,01,30,17.70
2016,08,18,01,31,17.70
2016,08,18,01,32,17.70
2016,08,18,01,33,17.70
2016,08,18,01,34,17.70
2016,08,18,01,35,17.70
2016,08,18,01,36,17.70
2016,08,18,01,37,17.70
2016,08,18,01,38,17.70
2016,08,18,01,39,17.70
2016,08,18,01,40,17.70
2016,08,18,01,41,17.80
2016,08,18,01,42,17.80
2016,08,18,01,43,17.80
2016,08,18,01,44,17.80
2016,08,18,01,45,17.80
2016,08,18,01,46,17.90
2016,08,18,01,47,17.90
2016,08,18,01,48,17.90
2016,08,18,01,49,17.90
2016,08,18,01,50,17.90
2016,08,18,01,51,17.90
2016,08,18,01,52,17.90
2016,08,18,01,53,17.90
2016,08,18,01,54,17.90
2016,08,18,01,55,17.90
2016,08,18,01,56,17.90
2016,08,18,01,57,17.90
2016,08,18,01,58,17.90
2016,08,18,01,59,17.90
2016,08,18,02,00,17.90
2016,08,18,02,01,17.90
2016,08,18,02,02,17.90
2016,08,18,02,03,17.90
2016,08,18,02,04,17.90
2016,08,18,02,05,17.90
2016,08,18,02,06,17.90
2016,08,18,02,07,17.80
2016,08,18,02,08,17.80
2016,08,18,02,09,17.80
2016,08,18,02,10,17.70
2016,08,18,02,11,17.60
2016,08,18,02,12,17.60
2016,08,18,02,13,17.50
2016,08,18,02,14,17.50
2016,08,18,02,15,17.40
2016,08,18,02,16,17.30
2016,08,18,02,17,17.30
2016,08,18,02,18,17.30
2016,08,18,02,19,17.20
2016,08,18,02,20,17.20
2016,08,18,02,21,17.10
2016,08,18,02,22,17.00
2016,08,18,02,23,17.00
2016,08,18,02,24,16.90
2016,08,18,02,25,16.90
2016,08,18,02,26,16.80
2016,08,18,02,27,16.80
2016,08,18,02,28,16.70
2016,08,18,02,29,16.70
2016,08,18,02,30,16.70
2016,08,18,02,31,16.70
2016,08,18,02,32,16.70
2016,08,18,02,33,16.60
2016,08,18,02,34,16.60
2016,08,18,02,35,16.50
2016,08,18,02,36,16.40
2016,08,18,02,37,16.40
2016,08,18,02,38,16.40
2016,08,18,02,39,16.40
2016,08,18,02,40,16.30
2016,08,18,02,41,16.30
2016,08,18,02,42,16.30
2016,08,18,02,43,16.20
2016,08,18,02,44,16.20
2016,08,18,02,45,16.20
2016,08,18,02,46,16.10
2016,08,18,02,47,16.10
2016,08,18,02,48,16.10
2016,08,18,02,49,16.10
2016,08,18,02,50,16.10
2016,08,18,02,51,16.10
2016,08,18,02,52,15.90
2016,08,18,02,53,15.90
2016,08,18,02,54,15.90
2016,08,18,02,55,15.90
2016,08,18,02,56,15.90
2016,08,18,02,57,15.80
2016,08,18,02,58,15.80
2016,08,18,02,59,15.80
2016,08,18,03,00,15.80
2016,08,18,03,01,15.80
2016,08,18,03,02,15.80
2016,08,18,03,03,15.80
2016,08,18,03,04,15.80
2016,08,18,03,05,15.80
2016,08,18,03,06,15.80
2016,08,18,03,07,15.80
2016,08,18,03,08,15.80
2016,08,18,03,09,15.80
2016,08,18,03,10,15.80
2016,08,18,03,11,15.80
2016,08,18,03,12,15.80
2016,08,18,03,13,15.80
2016,08,18,03,14,15.80
2016,08,18,03,15,15.80
2016,08,18,03,16,15.80
2016,08,18,03,17,15.80
2016,08,18,03,18,15.80
2016,08,18,03,19,15.90
2016,08,18,03,20,15.90
2016,08,18,03,21,15.90
2016,08,18,03,22,15.90
2016,08,18,03,23,15.80
2016,08,18,03,24,15.80
2016,08,18,03,25,15.80
2016,08,18,03,26,15.80
2016,08,18,03,27,15.80
2016,08,18,03,28,15.80
2016,08,18,03,29,15.80
2016,08,18,03,30,15.80
2016,08,18,03,31,15.80
2016,08,18,03,32,15.80
2016,08,18,03,33,15.80
2016,08,18,03,34,15.80
2016,08,18,03,35,15.80
2016,08,18,03,36,15.80
2016,08,18,03,37,15.80
2016,08,18,03,38,15.80
2016,08,18,03,39,15.80
2016,08,18,03,40,15.70
2016,08,18,03,41,15.70
2016,08,18,03,42,15.70
2016,08,18,03,43,15.60
2016,08,18,03,44,15.60
2016,08,18,03,45,15.60
2016,08,18,03,46,15.60
2016,08,18,03,47,15.50
2016,08,18,03,48,15.50
2016,08,18,03,49,15.50
2016,08,18,03,50,15.50
2016,08,18,03,51,15.50
2016,08,18,03,52,15.50
2016,08,18,03,53,15.50
2016,08,18,03,54,15.50
2016,08,18,03,55,15.50
2016,08,18,03,56,15.50
2016,08,18,03,57,15.50
2016,08,18,03,58,15.60
2016,08,18,03,59,15.60
2016,08,18,04,00,15.60
2016,08,18,04,01,15.60
2016,08,18,04,02,15.60
2016,08,18,04,03,15.60
2016,08,18,04,04,15.60
2016,08,18,04,05,15.60
2016,08,18,04,06,15.60
2016,08,18,04,07,15.50
2016,08,18,04,08,15.50
2016,08,18,04,09,15.50
2016,08,18,04,10,15.50
2016,08,18,04,11,15.50
2016,08,18,04,12,15.50
2016,08,18,04,13,15.50
2016,08,18,04,14,15.40
2016,08,18,04,15,15.40
2016,08,18,04,16,15.40
2016,08,18,04,17,15.40
2016,08,18,04,18,15.40
2016,08,18,04,19,15.40
2016,08,18,04,20,15.40
2016,08,18,04,21,15.40
2016,08,18,04,22,15.40
2016,08,18,04,23,15.40
2016,08,18,04,24,15.40
2016,08,18,04,25,15.40
2016,08,18,04,26,15.30
2016,08,18,04,27,15.30
2016,08,18,04,28,15.30
2016,08,18,04,29,15.30
2016,08,18,04,30,15.30
2016,08,18,04,31,15.30
2016,08,18,04,32,15.30
2016,08,18,04,33,15.30
2016,08,18,04,34,15.30
2016,08,18,04,35,15.30
2016,08,18,04,36,15.30
2016,08,18,04,37,15.40
2016,08,18,04,38,15.40
2016,08,18,04,39,15.40
2016,08,18,04,40,15.40
2016,08,18,04,41,15.40
2016,08,18,04,42,15.40
2016,08,18,04,43,15.40
2016,08,18,04,44,15.40
2016,08,18,04,45,15.40
2016,08,18,04,46,15.40
2016,08,18,04,47,15.40
2016,08,18,04,48,15.40
2016,08,18,04,49,15.40
2016,08,18,04,50,15.40
2016,08,18,04,51,15.40
2016,08,18,04,52,15.40
2016,08,18,04,53,15.40
2016,08,18,04,54,15.40
2016,08,18,04,55,15.40
2016,08,18,04,56,15.40
2016,08,18,04,57,15.40
2016,08,18,04,58,15.40
2016,08,18,04,59,15.50
2016,08,18,05,00,15.50
2016,08,18,05,01,15.50
2016,08,18,05,02,15.60
2016,08,18,05,03,15.60
2016,08,18,05,04,15.60
2016,08,18,05,05,15.60
2016,08,18,05,06,15.70
2016,08,18,05,07,15.70
2016,08,18,05,08,15.70
2016,08,18,05,09,15.70
2016,08,18,05,10,15.80
2016,08,18,05,11,15.80
2016,08,18,05,12,15.80
2016,08,18,05,13,15.80
2016,08,18,05,14,15.80
2016,08,18,05,15,15.80
2016,08,18,05,16,15.80
2016,08,18,05,17,15.80
2016,08,18,05,18,15.80
2016,08,18,05,19,15.80
2016,08,18,05,20,15.80
2016,08,18,05,21,15.80
2016,08,18,05,22,15.80
2016,08,18,05,23,15.80
2016,08,18,05,24,15.70
2016,08,18,05,25,15.70
2016,08,18,05,26,15.70
2016,08,18,05,27,15.60
2016,08,18,05,28,15.60
2016,08,18,05,29,15.60
2016,08,18,05,30,15.60
2016,08,18,05,31,15.50
2016,08,18,05,32,15.50
2016,08,18,05,33,15.50
2016,08,18,05,34,15.50
2016,08,18,05,35,15.40
2016,08,18,05,36,15.40
2016,08,18,05,37,15.40
2016,08,18,05,38,15.40
2016,08,18,05,39,15.40
2016,08,18,05,40,15.30
2016,08,18,05,41,15.30
2016,08,18,05,42,15.30
2016,08,18,05,43,15.30
2016,08,18,05,44,15.30
2016,08,18,05,45,15.30
2016,08,18,05,46,15.30
2016,08,18,05,47,15.20
2016,08,18,05,48,15.20
2016,08,18,05,49,15.20
2016,08,18,05,50,15.10
2016,08,18,05,51,15.10
2016,08,18,05,52,15.10
2016,08,18,05,53,15.00
2016,08,18,05,54,15.00
2016,08,18,05,55,15.00
2016,08,18,05,56,14.90
2016,08,18,05,57,14.90
2016,08,18,05,58,14.90
2016,08,18,05,59,14.90
2016,08,18,06,00,14.80
2016,08,18,06,01,14.80
2016,08,18,06,02,14.80
2016,08,18,06,03,14.80
2016,08,18,06,04,14.80
2016,08,18,06,05,14.80
2016,08,18,06,06,14.80
2016,08,18,06,07,14.80
2016,08,18,06,08,14.80
2016,08,18,06,09,14.80
2016,08,18,06,10,14.80
2016,08,18,06,11,14.80
2016,08,18,06,12,14.80
2016,08,18,06,13,14.80
2016,08,18,06,14,14.80
2016,08,18,06,15,14.80
2016,08,18,06,16,14.80
2016,08,18,06,17,14.80
2016,08,18,06,18,14.90
2016,08,18,06,19,15.00
2016,08,18,06,20,15.00
2016,08,18,06,21,15.10
2016,08,18,06,22,15.10
2016,08,18,06,23,15.20
2016,08,18,06,24,15.20
2016,08,18,06,25,15.30
2016,08,18,06,26,15.30
2016,08,18,06,27,15.30
2016,08,18,06,28,15.30
2016,08,18,06,29,15.30
2016,08,18,06,30,15.30
2016,08,18,06,31,15.40
2016,08,18,06,32,15.40
2016,08,18,06,33,15.50
2016,08,18,06,34,15.50
2016,08,18,06,35,15.50
2016,08,18,06,36,15.60
2016,08,18,06,37,15.60
2016,08,18,06,38,15.60
2016,08,18,06,39,15.70
2016,08,18,06,40,15.80
2016,08,18,06,41,15.80
2016,08,18,06,42,15.80
2016,08,18,06,43,15.80
2016,08,18,06,44,15.90
2016,08,18,06,45,15.90
2016,08,18,06,46,16.00
2016,08,18,06,47,16.10
2016,08,18,06,48,16.10
2016,08,18,06,49,16.10
2016,08,18,06,50,16.10
2016,08,18,06,51,16.20
2016,08,18,06,52,16.20
2016,08,18,06,53,16.20
2016,08,18,06,54,16.20
2016,08,18,06,55,16.20
2016,08,18,06,56,16.30
2016,08,18,06,57,16.30
2016,08,18,06,58,16.30
2016,08,18,06,59,16.40
2016,08,18,07,00,16.40
2016,08,18,07,01,16.40
2016,08,18,07,02,16.40
2016,08,18,07,03,16.40
2016,08,18,07,04,16.40
2016,08,18,07,05,16.40
2016,08,18,07,06,16.40
2016,08,18,07,07,16.50
2016,08,18,07,08,16.60
2016,08,18,07,09,16.60
2016,08,18,07,10,16.70
2016,08,18,07,11,16.70
2016,08,18,07,12,16.70
2016,08,18,07,13,16.70
2016,08,18,07,14,16.70
2016,08,18,07,15,16.70
2016,08,18,07,16,16.70
2016,08,18,07,17,16.70
2016,08,18,07,18,16.80
2016,08,18,07,19,16.80
2016,08,18,07,20,16.80
2016,08,18,07,21,16.80
2016,08,18,07,22,16.80
2016,08,18,07,23,16.80
2016,08,18,07,24,16.80
2016,08,18,07,25,16.90
2016,08,18,07,26,16.90
2016,08,18,07,27,16.90
2016,08,18,07,28,16.90
2016,08,18,07,29,16.90
2016,08,18,07,30,17.00
2016,08,18,07,31,17.00
2016,08,18,07,32,17.00
2016,08,18,07,33,17.00
2016,08,18,07,34,17.10
2016,08,18,07,35,17.10
2016,08,18,07,36,17.10
2016,08,18,07,37,17.10
2016,08,18,07,38,17.10
2016,08,18,07,39,17.20
2016,08,18,07,40,17.20
2016,08,18,07,41,17.20
2016,08,18,07,42,17.20
2016,08,18,07,43,17.30
2016,08,18,07,44,17.30
2016,08,18,07,45,17.30
2016,08,18,07,46,17.30
2016,08,18,07,47,17.30
2016,08,18,07,48,17.30
2016,08,18,07,49,17.40
2016,08,18,07,50,17.40
2016,08,18,07,51,17.40
2016,08,18,07,52,17.50
2016,08,18,07,53,17.50
2016,08,18,07,54,17.50
2016,08,18,07,55,17.50
2016,08,18,07,56,17.60
2016,08,18,07,57,17.60
2016,08,18,07,58,17.70
2016,08,18,07,59,17.70
2016,08,18,08,00,17.80
2016,08,18,08,01,17.90
2016,08,18,08,02,17.90
2016,08,18,08,03,17.90
2016,08,18,08,04,18.10
2016,08,18,08,05,18.10
2016,08,18,08,06,18.10
2016,08,18,08,07,18.20
2016,08,18,08,08,18.20
2016,08,18,08,09,18.20
2016,08,18,08,10,18.30
2016,08,18,08,11,18.30
2016,08,18,08,12,18.30
2016,08,18,08,13,18.40
2016,08,18,08,14,18.50
2016,08,18,08,15,18.50
2016,08,18,08,16,18.60
2016,08,18,08,17,18.70
2016,08,18,08,18,18.90
2016,08,18,08,19,19.00
2016,08,18,08,20,19.10
2016,08,18,08,21,19.20
2016,08,18,08,22,19.30
2016,08,18,08,23,19.40
2016,08,18,08,24,19.40
2016,08,18,08,25,19.50
2016,08,18,08,26,19.50
2016,08,18,08,27,19.60
2016,08,18,08,28,19.60
2016,08,18,08,29,19.70
2016,08,18,08,30,19.70
2016,08,18,08,31,19.80
2016,08,18,08,32,19.90
2016,08,18,08,33,19.90
2016,08,18,08,34,20.10
2016,08,18,08,35,20.20
2016,08,18,08,36,20.30
2016,08,18,08,37,20.40
2016,08,18,08,38,20.50
2016,08,18,08,39,20.50
2016,08,18,08,40,20.60
2016,08,18,08,41,20.70
2016,08,18,08,42,20.70
2016,08,18,08,43,20.80
2016,08,18,08,44,20.80
2016,08,18,08,45,20.90
2016,08,18,08,46,20.90
2016,08,18,08,47,21.00
2016,08,18,08,48,21.00
2016,08,18,08,49,21.10
2016,08,18,08,50,21.20
2016,08,18,08,51,21.30
2016,08,18,08,52,21.40
2016,08,18,08,53,21.50
2016,08,18,08,54,21.60
2016,08,18,08,55,21.60
2016,08,18,08,56,21.70
2016,08,18,08,57,21.80
2016,08,18,08,58,21.90
2016,08,18,08,59,22.00
2016,08,18,09,00,22.00
2016,08,18,09,01,22.00
2016,08,18,09,02,22.00
2016,08,18,09,03,22.00
2016,08,18,09,04,22.10
2016,08,18,09,05,22.10
2016,08,18,09,06,22.20
2016,08,18,09,07,22.20
2016,08,18,09,08,22.30
2016,08,18,09,09,22.40
2016,08,18,09,10,22.50
2016,08,18,09,11,22.60
2016,08,18,09,12,22.70
2016,08,18,09,13,22.80
2016,08,18,09,14,22.80
2016,08,18,09,15,22.90
2016,08,18,09,16,23.00
2016,08,18,09,17,23.10
2016,08,18,09,18,23.20
2016,08,18,09,19,23.30
2016,08,18,09,20,23.30
2016,08,18,09,21,23.40
2016,08,18,09,22,23.50
2016,08,18,09,23,23.60
2016,08,18,09,24,23.70
2016,08,18,09,25,23.70
2016,08,18,09,26,23.90
2016,08,18,09,27,23.90
2016,08,18,09,28,23.90
2016,08,18,09,29,24.00
2016,08,18,09,30,24.10
2016,08,18,09,31,24.10
2016,08,18,09,32,24.10
2016,08,18,09,33,24.10
2016,08,18,09,34,24.10
2016,08,18,09,35,24.10
2016,08,18,09,36,24.10
2016,08,18,09,37,24.10
2016,08,18,09,38,24.10
2016,08,18,09,39,24.10
2016,08,18,09,40,24.20
2016,08,18,09,41,24.30
2016,08,18,09,42,24.30
2016,08,18,09,43,24.40
2016,08,18,09,44,24.40
2016,08,18,09,45,24.50
2016,08,18,09,46,24.50
2016,08,18,09,47,24.60
2016,08,18,09,48,24.60
2016,08,18,09,49,24.70
2016,08,18,09,50,24.70
2016,08,18,09,51,24.80
2016,08,18,09,52,24.80
2016,08,18,09,53,24.80
2016,08,18,09,54,24.90
2016,08,18,09,55,24.90
2016,08,18,09,56,24.90
2016,08,18,09,57,25.00
2016,08,18,09,58,25.00
2016,08,18,09,59,25.10
2016,08,18,10,00,25.10
2016,08,18,10,01,25.10
2016,08,18,10,02,25.00
2016,08,18,10,03,25.00
2016,08,18,10,04,25.00
2016,08,18,10,05,25.00
2016,08,18,10,06,25.00
2016,08,18,10,07,24.90
2016,08,18,10,08,24.90
2016,08,18,10,09,24.90
2016,08,18,10,10,25.00
2016,08,18,10,11,25.00
2016,08,18,10,12,25.10
2016,08,18,10,13,25.20
2016,08,18,10,14,25.30
2016,08,18,10,15,25.40
2016,08,18,10,16,25.50
2016,08,18,10,17,25.60
2016,08,18,10,18,25.70
2016,08,18,10,19,25.70
2016,08,18,10,20,25.80
2016,08,18,10,21,25.90
2016,08,18,10,22,25.90
2016,08,18,10,23,26.00
2016,08,18,10,24,26.00
2016,08,18,10,25,25.90
2016,08,18,10,26,26.00
2016,08,18,10,27,26.00
2016,08,18,10,28,26.10
2016,08,18,10,29,26.10
2016,08,18,10,30,26.20
2016,08,18,10,31,26.20
2016,08,18,10,32,26.20
2016,08,18,10,33,26.40
2016,08,18,10,34,26.50
2016,08,18,10,35,26.60
2016,08,18,10,36,26.60
2016,08,18,10,37,26.60
2016,08,18,10,38,26.60
2016,08,18,10,39,26.60
2016,08,18,10,40,26.60
2016,08,18,10,41,26.60
2016,08,18,10,42,26.70
2016,08,18,10,43,26.80
2016,08,18,10,44,26.80
2016,08,18,10,45,26.90
2016,08,18,10,46,27.00
2016,08,18,10,47,27.10
2016,08,18,10,48,27.20
2016,08,18,10,49,27.00
2016,08,18,10,50,26.90
2016,08,18,10,51,26.90
2016,08,18,10,52,26.90
2016,08,18,10,53,26.90
2016,08,18,10,54,26.90
2016,08,18,10,55,26.90
2016,08,18,10,56,27.00
2016,08,18,10,57,27.00
2016,08,18,10,58,27.10
2016,08,18,10,59,27.10
2016,08,18,11,00,27.20
2016,08,18,11,01,27.30
2016,08,18,11,02,27.40
2016,08,18,11,03,27.50
2016,08,18,11,04,27.60
2016,08,18,11,05,27.60
2016,08,18,11,06,27.60
2016,08,18,11,07,27.70
2016,08,18,11,08,27.80
2016,08,18,11,09,27.80
2016,08,18,11,10,27.90
2016,08,18,11,11,27.80
2016,08,18,11,12,27.80
2016,08,18,11,13,27.80
2016,08,18,11,14,27.80
2016,08,18,11,15,27.80
2016,08,18,11,16,27.80
2016,08,18,11,17,27.90
2016,08,18,11,18,27.90
2016,08,18,11,19,28.00
2016,08,18,11,20,28.00
2016,08,18,11,21,28.10
2016,08,18,11,22,28.10
2016,08,18,11,23,28.20
2016,08,18,11,24,28.20
2016,08,18,11,25,28.30
2016,08,18,11,26,28.30
2016,08,18,11,27,28.40
2016,08,18,11,28,28.40
2016,08,18,11,29,28.50
2016,08,18,11,30,28.60
2016,08,18,11,31,28.60
2016,08,18,11,32,28.70
2016,08,18,11,33,28.70
2016,08,18,11,34,28.70
2016,08,18,11,35,28.70
2016,08,18,11,36,28.60
2016,08,18,11,37,28.60
2016,08,18,11,38,28.60
2016,08,18,11,39,28.60
2016,08,18,11,40,28.60
2016,08,18,11,41,28.70
2016,08,18,11,42,28.70
2016,08,18,11,43,28.80
2016,08,18,11,44,28.80
2016,08,18,11,45,28.80
2016,08,18,11,46,28.60
2016,08,18,11,47,28.50
2016,08,18,11,48,28.40
2016,08,18,11,49,28.40
2016,08,18,11,50,28.50
2016,08,18,11,51,28.60
2016,08,18,11,52,28.70
2016,08,18,11,53,28.80
2016,08,18,11,54,28.90
2016,08,18,11,55,28.90
2016,08,18,11,56,28.90
2016,08,18,11,57,28.90
2016,08,18,11,58,28.90
2016,08,18,11,59,28.90
2016,08,18,12,00,28.90
2016,08,18,12,01,28.90
2016,08,18,12,02,28.90
2016,08,18,12,03,28.90
2016,08,18,12,04,28.90
2016,08,18,12,05,29.00
2016,08,18,12,06,29.10
2016,08,18,12,07,29.10
2016,08,18,12,08,29.10
2016,08,18,12,09,28.90
2016,08,18,12,10,28.90
2016,08,18,12,11,28.90
2016,08,18,12,12,28.90
2016,08,18,12,13,28.90
2016,08,18,12,14,28.90
2016,08,18,12,15,28.90
2016,08,18,12,16,28.90
2016,08,18,12,17,28.90
2016,08,18,12,18,28.90
2016,08,18,12,19,28.90
2016,08,18,12,20,29.00
2016,08,18,12,21,29.10
2016,08,18,12,22,29.20
2016,08,18,12,23,29.20
2016,08,18,12,24,29.30
2016,08,18,12,25,29.50
2016,08,18,12,26,29.50
2016,08,18,12,27,29.60
2016,08,18,12,28,29.60
2016,08,18,12,29,29.70
2016,08,18,12,30,29.70
2016,08,18,12,31,29.80
2016,08,18,12,32,29.80
2016,08,18,12,33,29.80
2016,08,18,12,34,29.70
2016,08,18,12,35,29.70
2016,08,18,12,36,29.70
2016,08,18,12,37,29.70
2016,08,18,12,38,29.80
2016,08,18,12,39,29.90
2016,08,18,12,40,29.90
2016,08,18,12,41,29.90
2016,08,18,12,42,29.90
2016,08,18,12,43,29.90
2016,08,18,12,44,29.90
2016,08,18,12,45,30.00
2016,08,18,12,46,30.10
2016,08,18,12,47,30.20
2016,08,18,12,48,30.30
2016,08,18,12,49,30.30
2016,08,18,12,50,30.30
2016,08,18,12,51,30.30
2016,08,18,12,52,30.30
2016,08,18,12,53,30.30
2016,08,18,12,54,30.20
2016,08,18,12,55,30.20
2016,08,18,12,56,30.30
2016,08,18,12,57,30.40
2016,08,18,12,58,30.40
2016,08,18,12,59,30.30
2016,08,18,13,00,30.30
2016,08,18,13,01,30.20
2016,08,18,13,02,30.20
2016,08,18,13,03,30.20
2016,08,18,13,04,30.30
2016,08,18,13,05,30.20
2016,08,18,13,06,30.30
2016,08,18,13,07,30.30
2016,08,18,13,08,30.30
2016,08,18,13,09,30.10
2016,08,18,13,10,30.10
2016,08,18,13,11,30.10
2016,08,18,13,12,30.10
2016,08,18,13,13,30.10
2016,08,18,13,14,30.20
2016,08,18,13,15,30.20
2016,08,18,13,16,30.30
2016,08,18,13,17,30.30
2016,08,18,13,18,30.30
2016,08,18,13,19,30.30
2016,08,18,13,20,30.30
2016,08,18,13,21,30.40
2016,08,18,13,22,30.50
2016,08,18,13,23,30.70
2016,08,18,13,24,30.70
2016,08,18,13,25,30.70
2016,08,18,13,26,30.50
2016,08,18,13,27,30.30
2016,08,18,13,28,30.30
2016,08,18,13,29,30.40
2016,08,18,13,30,30.50
2016,08,18,13,31,30.60
2016,08,18,13,32,30.70
2016,08,18,13,33,30.80
2016,08,18,13,34,30.90
2016,08,18,13,35,30.90
2016,08,18,13,36,30.90
2016,08,18,13,37,30.90
2016,08,18,13,38,31.00
2016,08,18,13,39,31.10
2016,08,18,13,40,31.20
2016,08,18,13,41,31.30
2016,08,18,13,42,31.40
2016,08,18,13,43,31.50
2016,08,18,13,44,31.60
2016,08,18,13,45,31.60
2016,08,18,13,46,31.60
2016,08,18,13,47,31.60
2016,08,18,13,48,31.60
2016,08,18,13,49,31.60
2016,08,18,13,50,31.60
2016,08,18,13,51,31.60
2016,08,18,13,52,31.60
2016,08,18,13,53,31.60
2016,08,18,13,54,31.60
2016,08,18,13,55,31.70
2016,08,18,13,56,31.70
2016,08,18,13,57,31.60
2016,08,18,13,58,31.60
2016,08,18,13,59,31.60
2016,08,18,14,00,31.60
2016,08,18,14,01,31.60
2016,08,18,14,02,31.60
2016,08,18,14,03,31.60
2016,08,18,14,04,31.70
2016,08,18,14,05,31.70
2016,08,18,14,06,31.80
2016,08,18,14,07,31.80
2016,08,18,14,08,31.80
2016,08,18,14,09,31.70
2016,08,18,14,10,31.60
2016,08,18,14,11,31.50
2016,08,18,14,12,31.40
2016,08,18,14,13,31.40
2016,08,18,14,14,31.30
2016,08,18,14,15,31.20
2016,08,18,14,16,31.20
2016,08,18,14,17,31.20
2016,08,18,14,18,31.30
2016,08,18,14,19,31.40
2016,08,18,14,20,31.50
2016,08,18,14,21,31.60
2016,08,18,14,22,31.60
2016,08,18,14,23,31.60
2016,08,18,14,24,31.70
2016,08,18,14,25,31.70
2016,08,18,14,26,31.80
2016,08,18,14,27,31.80
2016,08,18,14,28,31.90
2016,08,18,14,29,31.90
2016,08,18,14,30,32.00
2016,08,18,14,31,32.10
2016,08,18,14,32,32.10
2016,08,18,14,33,32.10
2016,08,18,14,34,32.20
2016,08,18,14,35,32.30
2016,08,18,14,36,32.40
2016,08,18,14,37,32.40
2016,08,18,14,38,32.50
2016,08,18,14,39,32.50
2016,08,18,14,40,32.50
2016,08,18,14,41,32.30
2016,08,18,14,42,32.20
2016,08,18,14,43,32.20
2016,08,18,14,44,32.20
2016,08,18,14,45,32.20
2016,08,18,14,46,32.20
2016,08,18,14,47,32.10
2016,08,18,14,48,32.10
2016,08,18,14,49,32.10
2016,08,18,14,50,32.10
2016,08,18,14,51,32.10
2016,08,18,14,52,32.00
2016,08,18,14,53,31.90
2016,08,18,14,54,31.90
2016,08,18,14,55,31.90
2016,08,18,14,56,31.90
2016,08,18,14,57,32.00
2016,08,18,14,58,32.10
2016,08,18,14,59,32.10
2016,08,18,15,00,32.10
2016,08,18,15,01,32.20
2016,08,18,15,02,32.20
2016,08,18,15,03,32.10
2016,08,18,15,04,32.10
2016,08,18,15,05,32.10
2016,08,18,15,06,32.10
2016,08,18,15,07,32.10
2016,08,18,15,08,32.10
2016,08,18,15,09,32.00
2016,08,18,15,10,31.80
2016,08,18,15,11,31.80
2016,08,18,15,12,31.80
2016,08,18,15,13,31.80
2016,08,18,15,14,31.80
2016,08,18,15,15,31.90
2016,08,18,15,16,31.90
2016,08,18,15,17,31.90
2016,08,18,15,18,32.00
2016,08,18,15,19,32.00
2016,08,18,15,20,31.90
2016,08,18,15,21,31.90
2016,08,18,15,22,31.90
2016,08,18,15,23,31.90
2016,08,18,15,24,31.80
2016,08,18,15,25,31.70
2016,08,18,15,26,31.80
2016,08,18,15,27,31.80
2016,08,18,15,28,31.90
2016,08,18,15,29,31.90
2016,08,18,15,30,32.00
2016,08,18,15,31,32.10
2016,08,18,15,32,32.10
2016,08,18,15,33,32.20
2016,08,18,15,34,32.20
2016,08,18,15,35,32.20
2016,08,18,15,36,32.20
2016,08,18,15,37,32.30
2016,08,18,15,38,32.30
2016,08,18,15,39,32.40
2016,08,18,15,40,32.40
2016,08,18,15,41,32.40
2016,08,18,15,42,32.40
2016,08,18,15,43,32.40
2016,08,18,15,44,32.40
2016,08,18,15,45,32.40
2016,08,18,15,46,32.40
2016,08,18,15,47,32.30
2016,08,18,15,48,32.30
2016,08,18,15,49,32.30
2016,08,18,15,50,32.20
2016,08,18,15,51,32.20
2016,08,18,15,52,32.20
2016,08,18,15,53,32.20
2016,08,18,15,54,32.20
2016,08,18,15,55,32.20
2016,08,18,15,56,32.20
2016,08,18,15,57,32.20
2016,08,18,15,58,32.20
2016,08,18,15,59,32.20
2016,08,18,16,00,32.20
2016,08,18,16,01,32.10
2016,08,18,16,02,32.00
2016,08,18,16,03,31.90
2016,08,18,16,04,31.80
2016,08,18,16,05,31.70
2016,08,18,16,06,31.70
2016,08,18,16,07,31.60
2016,08,18,16,08,31.60
2016,08,18,16,09,31.50
2016,08,18,16,10,31.40
2016,08,18,16,11,31.30
2016,08,18,16,12,31.20
2016,08,18,16,13,31.20
2016,08,18,16,14,31.10
2016,08,18,16,15,31.00
2016,08,18,16,16,31.00
2016,08,18,16,17,30.90
2016,08,18,16,18,30.90
2016,08,18,16,19,30.80
2016,08,18,16,20,30.80
2016,08,18,16,21,30.70
2016,08,18,16,22,30.70
2016,08,18,16,23,30.70
2016,08,18,16,24,30.70
2016,08,18,16,25,30.70
2016,08,18,16,26,30.70
2016,08,18,16,27,30.70
2016,08,18,16,28,30.70
2016,08,18,16,29,30.70
2016,08,18,16,30,30.70
2016,08,18,16,31,30.70
2016,08,18,16,32,30.70
2016,08,18,16,33,30.70
2016,08,18,16,34,30.70
2016,08,18,16,35,30.70
2016,08,18,16,36,30.70
2016,08,18,16,37,30.70
2016,08,18,16,38,30.70
2016,08,18,16,39,30.70
2016,08,18,16,40,30.70
2016,08,18,16,41,30.70
2016,08,18,16,42,30.70
2016,08,18,16,43,30.60
2016,08,18,16,44,30.60
2016,08,18,16,45,30.60
2016,08,18,16,46,30.60
2016,08,18,16,47,30.60
2016,08,18,16,48,30.60
2016,08,18,16,49,30.60
2016,08,18,16,50,30.60
2016,08,18,16,51,30.60
2016,08,18,16,52,30.60
2016,08,18,16,53,30.60
2016,08,18,16,54,30.60
2016,08,18,16,55,30.60
2016,08,18,16,56,30.60
2016,08,18,16,57,30.60
2016,08,18,16,58,30.60
2016,08,18,16,59,30.60
2016,08,18,17,00,30.40
2016,08,18,17,01,30.40
2016,08,18,17,02,30.40
2016,08,18,17,03,30.40
2016,08,18,17,04,30.40
2016,08,18,17,05,30.40
2016,08,18,17,06,30.40
2016,08,18,17,07,30.40
2016,08,18,17,08,30.30
2016,08,18,17,09,30.30
2016,08,18,17,10,30.30
2016,08,18,17,11,30.30
2016,08,18,17,12,30.30
2016,08,18,17,13,30.30
2016,08,18,17,14,30.20
2016,08,18,17,15,30.20
2016,08,18,17,16,30.20
2016,08,18,17,17,30.20
2016,08,18,17,18,30.20
2016,08,18,17,19,30.10